Cloud_Cover
100 95 79 56 38 20 17 6 6 10 4 0 0 2 0 13 10 0 3 0 2 0 0 0 0 23 5 68 92 79 74 4 0 3 0 2 96 100 2 3 0 4 1 0 17
100 99 86 100 22 21 23 14 14 11 0 0 1 0 0 16 1 0 0 0 0 0 0 0 0 28 62 80 44 18 97 4 0 0 0 0 1 5 29 1 5 5 0 0 20
100 100 100 100 99 24 20 17 9 1 2 0 0 0 0 17 0 0 0 0 0 0 0 0 1 5 100 77 95 100 29 2 0 2 0 0 0 0 0 3 5 0 3 0 1
100 100 100 100 100 100 29 10 0 0 7 0 0 0 0 0 0 0 0 0 0 0 0 0 5 43 72 92 70 89 40 2 0 0 0 0 0 0 0 0 2 0 0 0 0
100 100 100 100 100 100 80 6 1 0 2 0 0 0 6 0 0 0 0 0 0 0 0 0 0 85 100 99 81 99 100 0 0 0 5 3 0 0 0 0 0 0 0 0 0
100 100 100 100 100 100 81 0 0 0 0 0 3 8 6 0 0 0 0 0 0 0 0 0 9 91 100 100 89 98 100 0 2 0 0 0 0 0 0 0 0 0 0 0 0
100 100 100 100 100 34 0 0 0 0 1 1 4 7 0 0 0 0 0 0 0 0 0 0 53 89 100 100 94 100 14 0 58 0 0 0 0 0 0 0 0 0 0 0 0
100 100 45 0 0 0 2 8 0 0 0 0 1 0 0 0 0 0 0 0 0 0 0 0 33 100 100 98 89 100 87 4 39 0 0 0 0 1 2 0 4 0 0 0 0
100 1 17 22 22 21 94 12 0 0 1 0 6 0 0 0 0 0 0 0 0 0 0 0 99 100 100 99 99 100 49 15 72 5 1 0 2 2 0 0 0 0 0 0 0
96 1 50 56 67 99 94 0 0 0 0 0 0 0 0 0 0 0 0 0 0 0 0 2 100 100 100 100 100 100 62 23 4 9 5 0 3 5 4 2 0 0 0 0 0
19 66 100 100 100 100 42 0 0 0 0 0 0 0 0 0 0 0 0 0 0 0 0 0 94 100 100 100 100 100 100 79 39 3 4 28 8 2 4 0 5 5 0 0 0
100 100 100 100 99 87 8 0 0 0 0 0 0 0 0 0 0 0 0 0 0 0 0 27 96 81 100 100 100 84 98 92 5 96 5 12 75 5 10 4 1 0 0 2 0
100 100 100 100 4 3 0 0 0 0 0 0 0 0 0 0 0 0 0 0 0 0 0 26 16 95 100 100 100 100 100 100 91 61 14 5 14 13 82 20 2 0 0 0 0
100 100 100 98 0 11 0 0 0 0 0 0 0 0 0 0 0 0 0 0 0 0 0 0 94 100 100 100 100 100 100 85 100 100 97 100 67 93 100 16 14 5 5 5 0
100 100 100 100 64 1 0 0 0 0 0 0 0 0 0 0 0 0 0 0 0 0 0 0 78 100 100 100 100 100 100 52 100 100 100 100 100 100 91 6 5 7 5 97 100
100 100 100 12 84 9 0 0 0 0 0 0 0 0 0 0 0 0 0 0 0 0 0 0 39 100 100 100 100 100 99 80 100 100 100 100 79 100 99 73 98 100 6 23 75
100 100 100 100 0 0 0 0 0 0 0 0 0 0 0 0 0 0 0 0 0 0 0 0 43 100 100 100 100 100 91 90 100 100 100 100 100 100 96 98 100 69 34 96 56
100 100 77 66 0 0 0 0 0 0 0 0 0 0 0 0 0 0 0 0 0 0 0 0 42 100 100 100 100 100 100 99 89 100 100 97 100 88 100 100 100 100 100 100 100
96 11 18 9 0 0 0 0 3 0 0 0 0 0 0 0 0 0 0 0 0 0 0 0 0 97 100 66 81 100 100 100 100 100 100 100 100 100 100 100 100 100 100 100 100
100 85 0 0 0 0 0 0 5 0 0 0 0 0 1 3 0 0 0 0 0 0 0 0 0 0 4 100 100 100 100 92 44 72 100 96 99 100 100 100 37 94 100 100 97
50 0 0 0 0 1 4 8 52 0 0 0 0 0 0 38 2 0 0 1 0 0 0 0 0 0 0 31 100 100 100 41 58 31 100 100 100 100 100 100 84 57 60 100 100
19 90 4 0 0 0 5 5 5 5 0 0 0 0 0 3 5 0 30 5 4 0 0 0 0 0 0 2 92 100 41 87 90 40 82 100 100 100 100 99 100 100 100 100 100
88 5 100 94 4 1 3 56 76 16 0 0 0 0 0 0 65 4 3 64 32 8 0 0 0 0 0 0 1 5 27 6 44 6 9 100 100 100 23 100 100 100 100 100 100
97 79 87 100 100 66 24 77 100 100 39 5 5 0 0 0 2 95 5 5 12 96 64 0 0 0 0 0 2 100 100 100 88 5 41 80 100 100 99 81 98 100 100 100 100
100 100 8 100 100 100 100 100 100 100 60 5 5 2 0 0 0 74 56 41 99 85 42 4 0 0 1 0 0 0 85 100 60 95 33 98 75 100 75 94 32 100 100 100 100
74 100 65 100 100 100 100 100 100 100 99 5 10 2 0 0 3 5 100 27 100 90 77 83 5 2 5 4 0 0 4 4 100 100 100 100 61 100 65 89 100 99 45 100 100
12 99 100 100 85 100 100 100 100 100 100 59 39 5 1 3 0 51 10 96 100 100 96 81 59 26 1 14 5 42 4 5 21 100 100 100 100 100 100 100 41 35 100 100 100